| time (UTC) | temp F | wind direction | speed MPH | gust MPH | rain 1hr in | rain 24hr in | rain mn in | humidity % | barometer mb |
| 20260509124703 | 60 | 8 | 19.0 | 29.0 | 0.00 | 0.01 | 0.00 | 69 | 1019.8 |
| 20260509124204 | 60 | 6 | 17.0 | 32.0 | 0.00 | 0.01 | 0.00 | 69 | 1019.8 |
| 20260509123704 | 60 | 13 | 19.0 | 32.0 | 0.00 | 0.01 | 0.00 | 68 | 1019.9 |
| 20260509123203 | 60 | 27 | 13.0 | 30.0 | 0.00 | 0.01 | 0.00 | 71 | 1020.0 |
| 20260509122703 | 59 | 3 | 19.0 | 30.0 | 0.00 | 0.01 | 0.00 | 69 | 1019.9 |
| 20260509122203 | 59 | 353 | 19.0 | 29.0 | 0.00 | 0.01 | 0.00 | 67 | 1019.9 |
| 20260509121708 | 60 | 21 | 15.0 | 31.0 | 0.00 | 0.01 | 0.00 | 68 | 1020.1 |
| 20260509120158 | 59 | 8 | 17.0 | 26.0 | 0.00 | 0.01 | 0.00 | 68 | 1020.2 |
| 20260509115656 | 59 | 18 | 16.0 | 27.0 | 0.00 | 0.01 | 0.00 | 66 | 1020.2 |
| 20260509115151 | 58 | 30 | 17.0 | 27.0 | 0.00 | 0.01 | 0.00 | 65 | 1020.1 |
| 20260509115015 | 59 | 30 | 15.0 | 24.0 | 0.00 | 0.01 | 0.00 | 63 | 1020.1 |
| 20260509114148 | 58 | 11 | 17.0 | 30.0 | 0.00 | 0.01 | 0.00 | 64 | 1020.2 |
| 20260509114002 | 58 | 41 | 17.0 | 30.0 | 0.00 | 0.01 | 0.00 | 65 | 1020.1 |
| 20260509113141 | 59 | 30 | 14.0 | 22.0 | 0.00 | 0.01 | 0.00 | 66 | 1020.2 |
| 20260509112638 | 59 | 333 | 14.0 | 26.0 | 0.00 | 0.01 | 0.00 | 64 | 1020.1 |
| 20260509112137 | 59 | 11 | 12.0 | 33.0 | 0.00 | 0.01 | 0.00 | 67 | 1020.1 |
| 20260509111635 | 59 | 30 | 21.0 | 33.0 | 0.00 | 0.01 | 0.00 | 66 | 1020.2 |
| 20260509111135 | 59 | 7 | 23.0 | 33.0 | 0.00 | 0.01 | 0.00 | 63 | 1020.1 |
| 20260509110633 | 58 | 1 | 17.0 | 29.0 | 0.00 | 0.01 | 0.00 | 65 | 1019.9 |
| 20260509110133 | 58 | 30 | 23.0 | 29.0 | 0.00 | 0.01 | 0.00 | 65 | 1020.1 |
| 20260509105633 | 59 | 27 | 15.0 | 28.0 | 0.00 | 0.01 | 0.00 | 67 | 1020.0 |
| 20260509105237 | 58 | 30 | 14.0 | 29.0 | 0.00 | 0.01 | 0.00 | 68 | 1020.0 |
| 20260509104130 | 57 | 30 | 12.0 | 29.0 | 0.00 | 0.01 | 0.00 | 67 | 1019.9 |
| 20260509103631 | 58 | 347 | 16.0 | 31.0 | 0.00 | 0.01 | 0.00 | 66 | 1020.0 |
| 20260509103133 | 59 | 15 | 19.0 | 31.0 | 0.00 | 0.01 | 0.00 | 64 | 1019.9 |
| 20260509102635 | 59 | 30 | 14.0 | 24.0 | 0.00 | 0.01 | 0.00 | 63 | 1019.8 |
| 20260509102135 | 58 | 30 | 14.0 | 30.0 | 0.00 | 0.01 | 0.00 | 65 | 1019.8 |
| 20260509101643 | 58 | 25 | 10.0 | 23.0 | 0.00 | 0.01 | 0.00 | 66 | 1019.9 |
| 20260509101636 | 58 | 30 | 21.0 | 30.0 | 0.00 | 0.01 | 0.00 | 64 | 1019.8 |
| 20260509100132 | 58 | 0 | 18.0 | 33.0 | 0.00 | 0.01 | 0.00 | 62 | 1019.7 |
| 20260509095948 | 58 | 18 | 15.0 | 33.0 | 0.00 | 0.01 | 0.00 | 60 | 1019.8 |
| 20260509095133 | 58 | 30 | 17.0 | 30.0 | 0.00 | 0.01 | 0.00 | 59 | 1019.8 |
| 20260509094951 | 58 | 46 | 14.0 | 29.0 | 0.00 | 0.01 | 0.00 | 58 | 1019.8 |
| 20260509094131 | 58 | 3 | 19.0 | 29.0 | 0.00 | 0.01 | 0.00 | 59 | 1019.7 |
| 20260509093631 | 57 | 356 | 13.0 | 24.0 | 0.00 | 0.01 | 0.00 | 65 | 1019.8 |
| 20260509093132 | 57 | 30 | 14.0 | 24.0 | 0.00 | 0.01 | 0.00 | 66 | 1019.9 |
| 20260509092631 | 57 | 349 | 14.0 | 24.0 | 0.00 | 0.01 | 0.00 | 64 | 1019.8 |
| 20260509092129 | 58 | 43 | 16.0 | 27.0 | 0.00 | 0.01 | 0.00 | 63 | 1019.7 |
| 20260509091955 | 58 | 13 | 19.0 | 28.0 | 0.00 | 0.01 | 0.00 | 61 | 1019.7 |
| 20260509091125 | 57 | 30 | 16.0 | 28.0 | 0.00 | 0.01 | 0.00 | 60 | 1019.7 |
| 20260509090624 | 57 | 340 | 13.0 | 23.0 | 0.00 | 0.01 | 0.00 | 65 | 1019.8 |
| 20260509090123 | 57 | 23 | 16.0 | 28.0 | 0.00 | 0.01 | 0.00 | 67 | 1019.8 |
| 20260509085615 | 57 | 8 | 14.0 | 28.0 | 0.00 | 0.01 | 0.00 | 67 | 1019.8 |
| 20260509085113 | 56 | 30 | 16.0 | 26.0 | 0.00 | 0.01 | 0.00 | 68 | 1019.8 |
| 20260509084612 | 56 | 13 | 13.0 | 26.0 | 0.00 | 0.01 | 0.00 | 67 | 1019.8 |
| 20260509084106 | 56 | 30 | 13.0 | 22.0 | 0.00 | 0.01 | 0.00 | 65 | 1019.9 |
| 20260509083606 | 56 | 10 | 14.0 | 22.0 | 0.00 | 0.01 | 0.00 | 60 | 1019.8 |
| 20260509083106 | 57 | 329 | 13.0 | 22.0 | 0.00 | 0.01 | 0.00 | 61 | 1019.8 |
| 20260509082606 | 56 | 31 | 15.0 | 21.0 | 0.00 | 0.01 | 0.00 | 63 | 1019.6 |
| 20260509082100 | 56 | 30 | 10.0 | 26.0 | 0.00 | 0.01 | 0.00 | 68 | 1019.7 |
| 20260509081922 | 56 | 30 | 14.0 | 29.0 | 0.00 | 0.01 | 0.00 | 70 | 1019.8 |
| 20260509081100 | 56 | 30 | 17.0 | 29.0 | 0.00 | 0.01 | 0.00 | 71 | 1019.7 |
| 20260509080556 | 56 | 21 | 13.0 | 22.0 | 0.00 | 0.01 | 0.00 | 70 | 1019.7 |
| 20260509080442 | 56 | 55 | 12.0 | 22.0 | 0.00 | 0.01 | 0.00 | 70 | 1019.6 |
| 20260509080048 | 56 | 30 | 13.0 | 21.0 | 0.00 | 0.01 | 0.00 | 70 | 1019.5 |
| 20260509074549 | 56 | 51 | 13.0 | 30.0 | 0.00 | 0.01 | 0.00 | 69 | 1019.5 |
| 20260509074048 | 56 | 14 | 11.0 | 30.0 | 0.00 | 0.01 | 0.00 | 70 | 1019.3 |
| 20260509073548 | 55 | 30 | 9.0 | 22.0 | 0.00 | 0.01 | 0.00 | 71 | 1019.4 |
| 20260509073047 | 55 | 27 | 15.0 | 22.0 | 0.00 | 0.01 | 0.00 | 71 | 1019.3 |
| 20260509072543 | 55 | 36 | 8.0 | 19.0 | 0.00 | 0.01 | 0.00 | 73 | 1019.3 |
| 20260509072042 | 55 | 14 | 11.0 | 16.0 | 0.00 | 0.01 | 0.00 | 75 | 1019.2 |
| 20260509071541 | 55 | 30 | 8.0 | 18.0 | 0.00 | 0.01 | 0.00 | 75 | 1019.1 |
| 20260509071039 | 55 | 23 | 6.0 | 18.0 | 0.00 | 0.01 | 0.00 | 75 | 1018.9 |
| 20260509070537 | 54 | 7 | 7.0 | 18.0 | 0.00 | 0.01 | 0.00 | 77 | 1019.0 |
| 20260509070052 | 53 | 30 | 10.0 | 17.0 | 0.00 | 0.01 | 0.00 | 79 | 1019.0 |
| 20260509065533 | 53 | 17 | 8.0 | 15.0 | 0.00 | 0.01 | 0.00 | 79 | 1019.0 |
| 20260509065034 | 54 | 347 | 8.0 | 23.0 | 0.00 | 0.01 | 0.00 | 79 | 1019.0 |
| 20260509064532 | 54 | 10 | 11.0 | 23.0 | 0.00 | 0.01 | 0.00 | 76 | 1019.0 |
| 20260509064340 | 55 | 322 | 4.0 | 17.0 | 0.00 | 0.01 | 0.00 | 76 | 1018.9 |
| 20260509063627 | 55 | 8 | 11.0 | 17.0 | 0.00 | 0.01 | 0.00 | 75 | 1018.8 |
| 20260509062524 | 55 | 1 | 4.0 | 9.0 | 0.00 | 0.01 | 0.00 | 76 | 1018.6 |
| 20260509062021 | 55 | 37 | 2.0 | 10.0 | 0.00 | 0.01 | 0.00 | 76 | 1018.6 |
| 20260509061517 | 55 | 36 | 4.0 | 14.0 | 0.00 | 0.01 | 0.00 | 75 | 1018.7 |
| 20260509061017 | 54 | 41 | 9.0 | 14.0 | 0.00 | 0.01 | 0.00 | 76 | 1018.7 |
| 20260509060513 | 54 | 43 | 8.0 | 23.0 | 0.00 | 0.01 | 0.00 | 75 | 1018.6 |
| 20260509060018 | 55 | 11 | 4.0 | 23.0 | 0.00 | 0.01 | 0.00 | 75 | 1018.7 |
| 20260509055509 | 55 | 60 | 7.0 | 18.0 | 0.00 | 0.01 | 0.00 | 75 | 1018.7 |
| 20260509055009 | 55 | 62 | 11.0 | 18.0 | 0.00 | 0.01 | 0.00 | 76 | 1018.7 |
| 20260509054830 | 55 | 41 | 12.0 | 21.0 | 0.00 | 0.01 | 0.00 | 78 | 1018.8 |
| 20260509054007 | 55 | 27 | 10.0 | 24.0 | 0.00 | 0.01 | 0.00 | 77 | 1018.8 |
| 20260509053508 | 55 | 36 | 17.0 | 24.0 | 0.00 | 0.01 | 0.00 | 76 | 1018.7 |
| 20260509053007 | 56 | 57 | 10.0 | 16.0 | 0.00 | 0.01 | 0.00 | 75 | 1018.5 |
| 20260509052504 | 56 | 6 | 4.0 | 14.0 | 0.00 | 0.01 | 0.00 | 75 | 1018.6 |
| 20260509052005 | 56 | 24 | 8.0 | 12.0 | 0.00 | 0.01 | 0.00 | 75 | 1018.7 |
| 20260509051505 | 56 | 8 | 6.0 | 12.0 | 0.00 | 0.01 | 0.00 | 75 | 1018.7 |
| 20260509051004 | 55 | 30 | 8.0 | 12.0 | 0.00 | 0.01 | 0.00 | 74 | 1018.9 |
| 20260509050505 | 55 | 53 | 5.0 | 11.0 | 0.00 | 0.01 | 0.00 | 75 | 1018.9 |
| 20260509050011 | 55 | 30 | 7.0 | 15.0 | 0.00 | 0.01 | 0.00 | 76 | 1019.0 |
| 20260509045821 | 55 | 332 | 6.0 | 15.0 | 0.00 | 0.01 | 0.00 | 76 | 1019.0 |
| 20260509045005 | 55 | 14 | 8.0 | 16.0 | 0.00 | 0.01 | 0.00 | 78 | 1019.0 |
| 20260509044505 | 55 | 36 | 9.0 | 16.0 | 0.00 | 0.01 | 0.00 | 78 | 1019.0 |
| 20260509044003 | 56 | 46 | 9.0 | 17.0 | 0.00 | 0.01 | 0.00 | 76 | 1019.0 |
| 20260509043506 | 56 | 40 | 8.0 | 17.0 | 0.00 | 0.01 | 0.00 | 74 | 1019.0 |
| 20260509042958 | 56 | 0 | 12.0 | 19.0 | 0.00 | 0.01 | 0.00 | 75 | 1019.0 |
| 20260509042501 | 56 | 20 | 11.0 | 19.0 | 0.00 | 0.01 | 0.00 | 75 | 1019.1 |
| 20260509041958 | 56 | 21 | 11.0 | 19.0 | 0.00 | 0.01 | 0.00 | 74 | 1019.1 |
| 20260509041456 | 56 | 24 | 12.0 | 21.0 | 0.00 | 0.01 | 0.00 | 72 | 1019.1 |
| 20260509040956 | 56 | 25 | 12.0 | 21.0 | 0.00 | 0.01 | 0.00 | 73 | 1018.9 |
| 20260509040456 | 56 | 3 | 6.0 | 13.0 | 0.00 | 0.01 | 0.00 | 75 | 1019.1 |
| 20260509035953 | 56 | 28 | 6.0 | 14.0 | 0.00 | 0.01 | 0.00 | 75 | 1019.0 |
| 20260509035451 | 56 | 18 | 6.0 | 14.0 | 0.00 | 0.01 | 0.00 | 75 | 1019.1 |
| 20260509034952 | 56 | 357 | 6.0 | 14.0 | 0.00 | 0.01 | 0.00 | 74 | 1019.1 |
| 20260509034826 | 55 | 1 | 7.0 | 14.0 | 0.00 | 0.01 | 0.00 | 74 | 1019.1 |
| 20260509034310 | 55 | 343 | 5.0 | 18.0 | 0.00 | 0.01 | 0.00 | 72 | 1019.1 |
| 20260509033836 | 55 | 325 | 5.0 | 18.0 | 0.00 | 0.01 | 0.00 | 72 | 1019.1 |
| 20260509033829 | 55 | 10 | 9.0 | 15.0 | 0.00 | 0.01 | 0.00 | 71 | 1019.1 |
| 20260509031947 | 55 | 359 | 5.0 | 13.0 | 0.00 | 0.01 | 0.00 | 69 | 1019.3 |
| 20260509031448 | 55 | 50 | 7.0 | 13.0 | 0.00 | 0.01 | 0.00 | 68 | 1019.2 |
| 20260509030946 | 55 | 4 | 7.0 | 18.0 | 0.00 | 0.01 | 0.00 | 68 | 1019.2 |
| 20260509030852 | 55 | 25 | 7.0 | 18.0 | 0.00 | 0.01 | 0.00 | 66 | 1019.3 |
| 20260509025947 | 55 | 30 | 9.0 | 17.0 | 0.00 | 0.01 | 0.00 | 64 | 1019.3 |
| 20260509025447 | 55 | 24 | 10.0 | 14.0 | 0.00 | 0.01 | 0.00 | 63 | 1019.3 |
| 20260509024946 | 55 | 27 | 9.0 | 19.0 | 0.00 | 0.01 | 0.00 | 62 | 1019.3 |
| 20260509024447 | 55 | 30 | 10.0 | 19.0 | 0.00 | 0.01 | 0.00 | 61 | 1019.4 |
| 20260509023947 | 55 | 30 | 12.0 | 18.0 | 0.00 | 0.01 | 0.00 | 62 | 1019.4 |
| 20260509023442 | 55 | 21 | 11.0 | 17.0 | 0.00 | 0.01 | 0.00 | 65 | 1019.5 |
| 20260509022941 | 55 | 20 | 12.0 | 18.0 | 0.00 | 0.01 | 0.00 | 67 | 1019.6 |
| 20260509022438 | 55 | 30 | 9.0 | 19.0 | 0.00 | 0.01 | 0.00 | 70 | 1019.6 |
| 20260509022255 | 55 | 346 | 9.0 | 19.0 | 0.00 | 0.01 | 0.00 | 70 | 1019.5 |
| 20260509021436 | 56 | 18 | 7.0 | 16.0 | 0.00 | 0.01 | 0.00 | 69 | 1019.6 |
| 20260509020934 | 56 | 30 | 11.0 | 16.0 | 0.00 | 0.01 | 0.00 | 67 | 1019.6 |
| 20260509020434 | 56 | 17 | 10.0 | 22.0 | 0.00 | 0.01 | 0.00 | 64 | 1019.6 |
| 20260509020251 | 56 | 30 | 12.0 | 22.0 | 0.00 | 0.01 | 0.00 | 64 | 1019.6 |
| 20260509015819 | 56 | 7 | 10.0 | 22.0 | 0.00 | 0.01 | 0.00 | 64 | 1019.6 |
| 20260509014933 | 56 | 30 | 15.0 | 22.0 | 0.00 | 0.01 | 0.00 | 64 | 1019.7 |
| 20260509014432 | 56 | 28 | 11.0 | 20.0 | 0.00 | 0.01 | 0.00 | 65 | 1019.7 |
| 20260509013932 | 56 | 30 | 11.0 | 21.0 | 0.00 | 0.01 | 0.00 | 65 | 1019.7 |
| 20260509013432 | 56 | 72 | 15.0 | 21.0 | 0.00 | 0.01 | 0.00 | 66 | 1019.7 |
| 20260509012927 | 56 | 30 | 11.0 | 22.0 | 0.00 | 0.01 | 0.00 | 67 | 1019.8 |
| 20260509012425 | 56 | 30 | 14.0 | 22.0 | 0.00 | 0.01 | 0.00 | 67 | 1019.9 |
| 20260509011926 | 56 | 31 | 9.0 | 20.0 | 0.00 | 0.01 | 0.00 | 68 | 1019.8 |
| 20260509011421 | 56 | 30 | 13.0 | 18.0 | 0.00 | 0.01 | 0.00 | 70 | 1019.7 |
| 20260509011040 | 57 | 30 | 10.0 | 19.0 | 0.00 | 0.01 | 0.00 | 70 | 1019.8 |
| 20260509005915 | 56 | 21 | 11.0 | 19.0 | 0.00 | 0.01 | 0.00 | 70 | 1019.8 |
| 20260509005411 | 56 | 30 | 12.0 | 19.0 | 0.00 | 0.01 | 0.00 | 69 | 1019.9 |
| 20260509004905 | 56 | 4 | 7.0 | 16.0 | 0.00 | 0.01 | 0.00 | 68 | 1019.9 |
| 20260509004406 | 57 | 1 | 6.0 | 19.0 | 0.00 | 0.01 | 0.00 | 68 | 1020.0 |
| 20260509003906 | 57 | 43 | 11.0 | 21.0 | 0.00 | 0.01 | 0.00 | 69 | 1020.0 |
| 20260509003728 | 57 | 30 | 13.0 | 22.0 | 0.00 | 0.01 | 0.00 | 70 | 1020.0 |
| 20260509002859 | 57 | 30 | 12.0 | 22.0 | 0.00 | 0.01 | 0.00 | 71 | 1020.0 |
| 20260509002357 | 57 | 17 | 15.0 | 21.0 | 0.00 | 0.01 | 0.00 | 71 | 1020.0 |
| 20260509001850 | 57 | 33 | 13.0 | 19.0 | 0.00 | 0.01 | 0.00 | 72 | 1020.0 |
| 20260509001352 | 57 | 3 | 7.0 | 19.0 | 0.00 | 0.01 | 0.00 | 72 | 1020.0 |
| 20260509000851 | 57 | 30 | 6.0 | 22.0 | 0.00 | 0.01 | 0.00 | 72 | 1020.2 |
| 20260509000345 | 57 | 30 | 16.0 | 22.0 | 0.00 | 0.01 | 0.00 | 72 | 1020.1 |
| 20260508235846 | 57 | 24 | 12.0 | 17.0 | 0.00 | 0.01 | 0.01 | 74 | 1020.1 |
| 20260508235342 | 57 | 47 | 11.0 | 17.0 | 0.00 | 0.01 | 0.01 | 77 | 1020.2 |
| 20260508234843 | 57 | 21 | 11.0 | 15.0 | 0.00 | 0.01 | 0.01 | 78 | 1020.0 |
| 20260508234343 | 57 | 27 | 9.0 | 21.0 | 0.00 | 0.01 | 0.01 | 78 | 1020.0 |
| 20260508233841 | 57 | 8 | 6.0 | 21.0 | 0.00 | 0.01 | 0.01 | 78 | 1019.9 |
| 20260508233343 | 57 | 34 | 5.0 | 17.0 | 0.00 | 0.01 | 0.01 | 78 | 1020.1 |
| 20260508233206 | 57 | 337 | 10.0 | 18.0 | 0.00 | 0.01 | 0.01 | 78 | 1020.0 |
| 20260508232342 | 57 | 36 | 12.0 | 18.0 | 0.00 | 0.01 | 0.01 | 78 | 1020.1 |
| 20260508231837 | 57 | 13 | 12.0 | 22.0 | 0.00 | 0.01 | 0.01 | 78 | 1020.2 |
| 20260508231336 | 57 | 31 | 11.0 | 22.0 | 0.00 | 0.01 | 0.01 | 77 | 1020.2 |
| 20260508231154 | 57 | 36 | 11.0 | 22.0 | 0.00 | 0.01 | 0.01 | 77 | 1020.2 |
| 20260508230334 | 57 | 27 | 10.0 | 26.0 | 0.00 | 0.01 | 0.01 | 80 | 1020.1 |
| 20260508225835 | 58 | 18 | 16.0 | 26.0 | 0.00 | 0.01 | 0.01 | 79 | 1019.9 |
| 20260508225332 | 58 | 18 | 12.0 | 22.0 | 0.00 | 0.01 | 0.01 | 76 | 1019.8 |
| 20260508224830 | 58 | 24 | 15.0 | 22.0 | 0.00 | 0.01 | 0.01 | 76 | 1019.8 |
| 20260508224331 | 58 | 36 | 10.0 | 23.0 | 0.00 | 0.01 | 0.01 | 77 | 1019.9 |
| 20260508223832 | 58 | 30 | 17.0 | 23.0 | 0.00 | 0.01 | 0.01 | 76 | 1019.9 |
| 20260508223331 | 58 | 14 | 12.0 | 22.0 | 0.00 | 0.01 | 0.01 | 77 | 1019.8 |
| 20260508222831 | 57 | 30 | 15.0 | 22.0 | 0.00 | 0.01 | 0.01 | 78 | 1019.8 |
| 20260508222330 | 57 | 30 | 8.0 | 20.0 | 0.00 | 0.01 | 0.01 | 80 | 1019.7 |
| 20260508221828 | 57 | 17 | 10.0 | 26.0 | 0.00 | 0.01 | 0.01 | 80 | 1019.6 |
| 20260508221328 | 57 | 30 | 13.0 | 26.0 | 0.00 | 0.01 | 0.01 | 80 | 1019.5 |
| 20260508220827 | 57 | 30 | 11.0 | 26.0 | 0.00 | 0.01 | 0.01 | 80 | 1019.5 |
| 20260508220326 | 58 | 0 | 10.0 | 19.0 | 0.00 | 0.01 | 0.01 | 78 | 1019.4 |
| 20260508215824 | 58 | 356 | 11.0 | 21.0 | 0.00 | 0.01 | 0.01 | 78 | 1019.3 |
| 20260508215319 | 58 | 1 | 14.0 | 21.0 | 0.00 | 0.01 | 0.01 | 78 | 1019.3 |
| 20260508214820 | 58 | 30 | 7.0 | 15.0 | 0.00 | 0.01 | 0.01 | 76 | 1019.2 |
| 20260508214633 | 58 | 6 | 10.0 | 18.0 | 0.00 | 0.01 | 0.01 | 76 | 1019.2 |
| 20260508213814 | 58 | 357 | 12.0 | 18.0 | 0.00 | 0.01 | 0.01 | 77 | 1019.3 |
| 20260508213309 | 58 | 13 | 11.0 | 18.0 | 0.00 | 0.01 | 0.01 | 78 | 1019.2 |
| 20260508212803 | 58 | 353 | 12.0 | 18.0 | 0.00 | 0.01 | 0.01 | 78 | 1019.1 |
| 20260508212307 | 58 | 336 | 7.0 | 19.0 | 0.00 | 0.01 | 0.01 | 78 | 1019.1 |
| 20260508211806 | 58 | 18 | 8.0 | 19.0 | 0.00 | 0.01 | 0.01 | 78 | 1019.0 |
| 20260508211621 | 58 | 351 | 9.0 | 17.0 | 0.00 | 0.01 | 0.01 | 78 | 1018.9 |
| 20260508210806 | 58 | 347 | 11.0 | 19.0 | 0.00 | 0.01 | 0.01 | 78 | 1018.9 |
| 20260508210304 | 58 | 30 | 13.0 | 19.0 | 0.00 | 0.01 | 0.01 | 78 | 1018.7 |
| 20260508205804 | 58 | 336 | 8.0 | 19.0 | 0.00 | 0.01 | 0.01 | 78 | 1018.7 |
| 20260508205259 | 58 | 30 | 9.0 | 20.0 | 0.00 | 0.01 | 0.01 | 78 | 1018.6 |
| 20260508204752 | 58 | 346 | 12.0 | 20.0 | 0.00 | 0.01 | 0.01 | 79 | 1018.7 |
| 20260508204249 | 59 | 15 | 8.0 | 17.0 | 0.00 | 0.01 | 0.01 | 78 | 1018.6 |
| 20260508203747 | 59 | 30 | 9.0 | 17.0 | 0.00 | 0.01 | 0.01 | 78 | 1018.6 |
| 20260508203246 | 59 | 336 | 10.0 | 19.0 | 0.00 | 0.01 | 0.01 | 78 | 1018.5 |
| 20260508203057 | 59 | 30 | 13.0 | 19.0 | 0.00 | 0.01 | 0.01 | 78 | 1018.4 |
| 20260508202245 | 59 | 17 | 10.0 | 16.0 | 0.00 | 0.01 | 0.01 | 79 | 1018.3 |
| 20260508201740 | 59 | 4 | 9.0 | 16.0 | 0.00 | 0.01 | 0.01 | 79 | 1018.3 |
| 20260508201239 | 59 | 33 | 7.0 | 16.0 | 0.00 | 0.01 | 0.01 | 79 | 1018.2 |
| 20260508200738 | 59 | 3 | 11.0 | 16.0 | 0.00 | 0.01 | 0.01 | 79 | 1018.1 |
| 20260508200252 | 59 | 30 | 8.0 | 14.0 | 0.00 | 0.01 | 0.01 | 79 | 1018.1 |
| 20260508195737 | 59 | 346 | 9.0 | 19.0 | 0.00 | 0.01 | 0.01 | 79 | 1018.1 |
| 20260508195238 | 59 | 30 | 13.0 | 22.0 | 0.00 | 0.01 | 0.01 | 79 | 1017.9 |
| 20260508194737 | 59 | 7 | 12.0 | 22.0 | 0.00 | 0.01 | 0.01 | 78 | 1018.1 |
| 20260508194237 | 59 | 27 | 13.0 | 20.0 | 0.00 | 0.02 | 0.01 | 78 | 1018.1 |
| 20260508194059 | 59 | 7 | 14.0 | 20.0 | 0.00 | 0.02 | 0.01 | 78 | 1018.0 |
| 20260508193234 | 60 | 30 | 10.0 | 16.0 | 0.00 | 0.03 | 0.01 | 79 | 1017.9 |
| 20260508192734 | 60 | 30 | 4.0 | 13.0 | 0.00 | 0.05 | 0.01 | 80 | 1018.0 |
| 20260508192234 | 60 | 23 | 9.0 | 14.0 | 0.00 | 0.05 | 0.01 | 80 | 1017.9 |
| 20260508191733 | 60 | 340 | 6.0 | 20.0 | 0.00 | 0.05 | 0.01 | 80 | 1017.9 |
| 20260508191555 | 60 | 30 | 11.0 | 23.0 | 0.00 | 0.05 | 0.01 | 79 | 1017.9 |
| 20260508190734 | 60 | 351 | 13.0 | 23.0 | 0.00 | 0.05 | 0.01 | 79 | 1017.9 |
| 20260508190234 | 60 | 40 | 7.0 | 16.0 | 0.00 | 0.05 | 0.01 | 79 | 1018.0 |
| 20260508185733 | 60 | 30 | 10.0 | 21.0 | 0.00 | 0.05 | 0.01 | 78 | 1017.9 |
| 20260508185233 | 60 | 30 | 14.0 | 21.0 | 0.00 | 0.05 | 0.01 | 78 | 1017.8 |
| 20260508185056 | 60 | 30 | 10.0 | 20.0 | 0.00 | 0.05 | 0.01 | 80 | 1018.0 |
| 20260508184233 | 60 | 11 | 12.0 | 21.0 | 0.00 | 0.05 | 0.01 | 80 | 1017.9 |
| 20260508183739 | 60 | 17 | 10.0 | 21.0 | 0.00 | 0.05 | 0.01 | 80 | 1017.9 |
| 20260508183233 | 60 | 30 | 12.0 | 19.0 | 0.00 | 0.05 | 0.01 | 80 | 1018.0 |
| 20260508182731 | 60 | 11 | 13.0 | 21.0 | 0.00 | 0.05 | 0.01 | 79 | 1018.0 |
| 20260508182539 | 60 | 342 | 6.0 | 21.0 | 0.00 | 0.05 | 0.01 | 80 | 1017.9 |
| 20260508182046 | 60 | 23 | 9.0 | 20.0 | 0.00 | 0.05 | 0.01 | 79 | 1017.8 |
| 20260508181229 | 60 | 315 | 10.0 | 23.0 | 0.00 | 0.05 | 0.01 | 79 | 1017.9 |
| 20260508180729 | 60 | 342 | 15.0 | 23.0 | 0.00 | 0.05 | 0.01 | 79 | 1017.8 |
| 20260508180544 | 60 | 354 | 11.0 | 19.0 | 0.00 | 0.05 | 0.01 | 80 | 1017.8 |
| 20260508175722 | 60 | 38 | 9.0 | 24.0 | 0.00 | 0.05 | 0.01 | 79 | 1017.7 |
| 20260508175220 | 60 | 20 | 15.0 | 24.0 | 0.00 | 0.05 | 0.01 | 79 | 1017.7 |
| 20260508174719 | 60 | 18 | 12.0 | 22.0 | 0.00 | 0.05 | 0.01 | 80 | 1017.6 |
| 20260508174217 | 60 | 14 | 12.0 | 20.0 | 0.00 | 0.05 | 0.01 | 80 | 1017.6 |
| 20260508173711 | 60 | 25 | 15.0 | 20.0 | 0.00 | 0.05 | 0.01 | 80 | 1017.6 |
| 20260508173213 | 60 | 33 | 13.0 | 20.0 | 0.00 | 0.05 | 0.01 | 81 | 1017.5 |
| 20260508172707 | 60 | 30 | 10.0 | 17.0 | 0.00 | 0.05 | 0.01 | 82 | 1017.6 |
| 20260508172206 | 60 | 34 | 9.0 | 15.0 | 0.00 | 0.05 | 0.01 | 83 | 1017.6 |
| 20260508171709 | 60 | 15 | 6.0 | 22.0 | 0.00 | 0.05 | 0.01 | 82 | 1017.7 |
| 20260508171206 | 60 | 4 | 11.0 | 22.0 | 0.00 | 0.05 | 0.01 | 81 | 1017.7 |
| 20260508170707 | 61 | 15 | 13.0 | 20.0 | 0.00 | 0.05 | 0.01 | 78 | 1017.7 |
| 20260508170205 | 61 | 6 | 14.0 | 21.0 | 0.00 | 0.05 | 0.01 | 78 | 1017.6 |
| 20260508165705 | 61 | 6 | 7.0 | 21.0 | 0.00 | 0.05 | 0.01 | 78 | 1017.5 |
| 20260508165526 | 61 | 14 | 15.0 | 21.0 | 0.00 | 0.05 | 0.01 | 77 | 1017.6 |
| 20260508164706 | 62 | 21 | 10.0 | 17.0 | 0.00 | 0.05 | 0.01 | 76 | 1017.6 |
| 20260508164203 | 62 | 24 | 13.0 | 22.0 | 0.00 | 0.05 | 0.01 | 76 | 1017.6 |
| 20260508163703 | 62 | 339 | 10.0 | 22.0 | 0.00 | 0.05 | 0.01 | 75 | 1017.7 |
| 20260508163528 | 62 | 357 | 12.0 | 20.0 | 0.00 | 0.05 | 0.01 | 76 | 1017.8 |
| 20260508162704 | 62 | 47 | 13.0 | 21.0 | 0.00 | 0.05 | 0.01 | 76 | 1017.8 |
| 20260508162516 | 62 | 4 | 12.0 | 21.0 | 0.00 | 0.05 | 0.01 | 77 | 1017.8 |
| 20260508161703 | 62 | 347 | 12.0 | 23.0 | 0.00 | 0.05 | 0.01 | 77 | 1017.7 |
| 20260508161204 | 62 | 13 | 15.0 | 23.0 | 0.00 | 0.05 | 0.01 | 75 | 1017.6 |
| 20260508160702 | 62 | 30 | 12.0 | 21.0 | 0.00 | 0.05 | 0.01 | 76 | 1017.6 |
| 20260508160157 | 62 | 330 | 12.0 | 22.0 | 0.00 | 0.05 | 0.01 | 77 | 1017.6 |
| 20260508155657 | 61 | 30 | 12.0 | 22.0 | 0.00 | 0.05 | 0.01 | 78 | 1017.7 |
| 20260508155156 | 61 | 328 | 9.0 | 20.0 | 0.00 | 0.05 | 0.01 | 80 | 1017.8 |
| 20260508154652 | 61 | 30 | 15.0 | 20.0 | 0.00 | 0.05 | 0.01 | 79 | 1017.7 |
| 20260508154147 | 61 | 18 | 11.0 | 22.0 | 0.00 | 0.05 | 0.01 | 80 | 1017.7 |
| 20260508153645 | 60 | 357 | 10.0 | 22.0 | 0.00 | 0.05 | 0.01 | 81 | 1017.7 |
| 20260508153146 | 60 | 343 | 15.0 | 22.0 | 0.00 | 0.05 | 0.01 | 80 | 1017.7 |
| 20260508152643 | 60 | 339 | 11.0 | 22.0 | 0.00 | 0.05 | 0.01 | 80 | 1017.8 |
| 20260508152143 | 60 | 8 | 15.0 | 21.0 | 0.00 | 0.05 | 0.01 | 82 | 1017.8 |
| 20260508151643 | 60 | 339 | 10.0 | 19.0 | 0.00 | 0.05 | 0.01 | 83 | 1017.6 |
| 20260508151140 | 59 | 344 | 14.0 | 22.0 | 0.00 | 0.05 | 0.01 | 82 | 1017.6 |
| 20260508150640 | 60 | 10 | 14.0 | 22.0 | 0.00 | 0.05 | 0.01 | 80 | 1017.7 |
| 20260508150136 | 62 | 344 | 13.0 | 21.0 | 0.00 | 0.05 | 0.01 | 79 | 1017.7 |
| 20260508145959 | 62 | 28 | 7.0 | 19.0 | 0.00 | 0.05 | 0.01 | 79 | 1017.5 |
| 20260508145134 | 62 | 30 | 13.0 | 19.0 | 0.01 | 0.05 | 0.01 | 77 | 1017.4 |
| 20260508144631 | 62 | 30 | 10.0 | 18.0 | 0.01 | 0.05 | 0.01 | 78 | 1017.4 |
| 20260508144132 | 62 | 30 | 12.0 | 22.0 | 0.01 | 0.05 | 0.01 | 79 | 1017.5 |
| 20260508143631 | 62 | 1 | 9.0 | 22.0 | 0.01 | 0.05 | 0.01 | 80 | 1017.4 |
| 20260508143131 | 62 | 30 | 14.0 | 20.0 | 0.01 | 0.05 | 0.01 | 80 | 1017.4 |
| 20260508142631 | 61 | 28 | 13.0 | 19.0 | 0.01 | 0.05 | 0.01 | 80 | 1017.4 |
| 20260508142449 | 60 | 34 | 7.0 | 14.0 | 0.01 | 0.05 | 0.01 | 83 | 1017.5 |
| 20260508141645 | 60 | 30 | 10.0 | 18.0 | 0.01 | 0.05 | 0.01 | 83 | 1017.4 |
| 20260508141131 | 59 | 18 | 8.0 | 18.0 | 0.01 | 0.06 | 0.01 | 83 | 1017.6 |
| 20260508140633 | 59 | 337 | 9.0 | 19.0 | 0.01 | 0.06 | 0.01 | 84 | 1017.7 |
| 20260508140132 | 59 | 306 | 9.0 | 19.0 | 0.01 | 0.06 | 0.01 | 84 | 1017.7 |
| 20260508135633 | 59 | 18 | 11.0 | 17.0 | 0.01 | 0.06 | 0.01 | 83 | 1017.6 |
| 20260508135132 | 60 | 13 | 10.0 | 16.0 | 0.00 | 0.07 | 0.00 | 81 | 1017.6 |
| 20260508134632 | 61 | 353 | 10.0 | 16.0 | 0.00 | 0.10 | 0.00 | 80 | 1017.5 |
| 20260508134128 | 62 | 48 | 7.0 | 16.0 | 0.00 | 0.11 | 0.00 | 78 | 1017.5 |
| 20260508133628 | 62 | 17 | 10.0 | 19.0 | 0.00 | 0.11 | 0.00 | 76 | 1017.3 |
| 20260508133129 | 62 | 38 | 13.0 | 19.0 | 0.00 | 0.11 | 0.00 | 76 | 1017.4 |
| 20260508132630 | 62 | 11 | 12.0 | 20.0 | 0.00 | 0.12 | 0.00 | 77 | 1017.3 |
| 20260508132129 | 62 | 356 | 12.0 | 20.0 | 0.00 | 0.12 | 0.00 | 74 | 1017.3 |
| 20260508131631 | 62 | 30 | 9.0 | 22.0 | 0.00 | 0.12 | 0.00 | 76 | 1017.3 |
| 20260508131127 | 63 | 20 | 11.0 | 24.0 | 0.00 | 0.12 | 0.00 | 76 | 1017.4 |
| 20260508130627 | 63 | 30 | 17.0 | 29.0 | 0.00 | 0.12 | 0.00 | 74 | 1017.4 |
| 20260508130127 | 62 | 349 | 12.0 | 29.0 | 0.00 | 0.15 | 0.00 | 73 | 1017.4 |
| 20260508125627 | 62 | 17 | 13.0 | 22.0 | 0.00 | 0.17 | 0.00 | 76 | 1017.4 |
| 20260508125126 | 62 | 25 | 15.0 | 29.0 | 0.00 | 0.17 | 0.00 | 77 | 1017.4 |